Погода в Алдане

Погода в Алдане : погода сейчас, прогноз погоды и архив. Всё, что Вы хотите узнать о погоде в Алдане!

Хотите узнать прогноз погоды в Алдане? Тогда Вам сюда: Погода в Алдане

Поиск расширенной информации на нашем сайте:

Другие новости

Новости СМИ2

Главная страница сайта

Новости сайта

02.10.2013

Напоминаем, что на нашем новом сайте вы можете получить высокодетализированные прогнозы погоды по пунктам России, СНГ и мира (включающие важные для авиации метеовеличины, такие как направление и скорость ветра, видимость, явления погоды, количество и форма облачности, нижняя и верхняя граница облачности), а также ознакомиться с разнообразными материалами по авиационной метеорологии и подборкой полезных ссылок на эту тему.

Сайт Метеоцентр.Азия посвящён разработке технологий оптимизации авиаметеорологического обслуживания, включая проектирование и перспективное создание нескольких автоматизированных авиаметеорологических систем:
- система выпуска высокодетальных прогностических карт явлений погоды для нижнего воздушного пространства по России и ближнему зарубежью;
- система верификации прогнозов TAF (выпускаемых синоптиками официальных АМСГ РФ и ближнего зарубежья) и AUTOTAF (выпускаемых сайтом Метеоцентр.Азия) - выявление ошибок, онлайн-сопоставление с фактической погодой METAR, автоматическое внесение коррективов в прогнозы при резком отклонении фактической погоды от прогноза, подсчёт оправдываемости прогнозов по элементам и в целом;
- система обработки, анализа и отображения авиаметеорологической информации для применения провайдерами метеорологической информации.


Погода в Алдане - сегодня

Время (UTC), дата Ветер
(°,м/с) 
Видим.   Явления Облачность Т
(°С)
Тd
(°С)
f(%) Тe
(°С)
Pmin
(гПа)
dP
(гПа)
Po
(мм)
O2
(г/м3)
Тmin Tmax R s Состояние
почвы
06 20.01.17 тихо ()   20000 м    6/0 верхняя 
[Ci fib]
-24.9 -28.1 75 -25  1030.8  0.4  705  314           
09 20.01.17 тихо ()   20000 м    4/0 верхняя 
[Ci fib]
-29 -31.4 80 -29  1034.4  1.9  706  320           
12 20.01.17 тихо ()   20000 м    8/0 средняя, верхняя 
[Ac trans|Ci fib]
-28.6 -30.4 84 -29  1036.1  1.7  707  320    -24       
15 20.01.17 210 (ЮЗ) 10 км  слаб. снег  10/0 средняя, верхняя 
[Ac trans|Cs]
-29.9 -31.7 84 -31  1037.8  1.1  708  322           
18 20.01.17 тихо ()   10 км  слаб. снег  10/0 средняя, верхняя 
[Ac trans|Cs]
-31 -32.8 84 -31  1039.8  1.3  709  324           
21 20.01.17 тихо ()   10 км  слаб. снег  10/0 средняя, верхняя 
[Ac trans|Cs]
-31.2 -33.6 79 -31  1040.6  0.7  710  325           
00 21.01.17 тихо ()   20000 м  {снег}  9/0 средняя, верхняя 
[Ac trans|Ci fib]
-31.1 -33.4 80 -31  1041.3  0.7  710  325  -31.6    0.2  62  равномерный
сухой снег
100% 
03 21.01.17 170 (Ю) 20000 м    9/0 верхняя 
[Ci fib]
-27.2 -29.6 80 -28  1039.4  -0.3  710  319           
06 21.01.17 270 (З) 20000 м    10/0 верхняя 
[Ci fib]
-23.6 -26.9 74 -24  1037.1  -0.9  709  315           
09 21.01.17 180 (Ю) 20000 м    8/0 верхняя 
[Ci fib]
-27.2 -29.6 80 -28  1037.9  -0.5  709  319           
12 21.01.17 200 (Ю) 20000 м    6/0 верхняя 
[Ci fib]
-28.8 -31.2 80 -29  1037.9  -0.6  708  321    -22.6       
15 21.01.17 230 (ЮЗ) 20000 м  слаб. снег  10/0 верхняя 
[Cs]
-26.7 -29.2 79 -27  1036.1  -0.9  708  318           
18 21.01.17 250 (З) 10 км  слаб. снег  10/0 средняя, верхняя 
[Ac trans|Cs]
-25.4 -27.2 85 -26  1034.6  -0.9  707  316           
21 21.01.17 210 (ЮЗ) 10 км  слаб. снег  10/0 средняя, верхняя 
[Ac trans|Cs]
-24.9 -27.4 80 -25  1034.1  -0.3  707  315           
00 22.01.17 220 (ЮЗ) 10 км  слаб. снег  10/0 средняя, верхняя 
[Ac trans|Cs]
-24.4 -26.9 80 -25  1033.6  -0.1  707  314  -30    0.2  63  равномерный
сухой снег
100% 
03 22.01.17 220 (ЮЗ) 20000 м  {снег}  8/0 верхняя 
[Ci fib]
-22.9 -26.2 74 -23  1033.1  707  313           
06 22.01.17 250 (З) 20000 м  {снег}  9/0 средняя, верхняя 
[Ac trans|Ci fib]
-21.6 -25.6 70 -22  1032.3  -0.3  707  311           
09 22.01.17 230 (ЮЗ) 20000 м    10/0 средняя, верхняя 
[Ac trans|Cs]
-23.5 -26 80 -24  1033.5  0.4  707  313           
12 22.01.17 220 (ЮЗ) 10 км  слаб. снег  10/0 средняя, верхняя 
[Ac trans|Cs]
-22.2 -24.8 79 -23  1032.8  -0.1  707  312    -21.4  0.0     
15 22.01.17 210 (ЮЗ) 10 км  слаб. снег  10/0 средняя, верхняя 
[Ac trans|Cs]
-21.8 -24.3 80 -25  1032.2  -0.5  706  311           
18 22.01.17 220 (ЮЗ) 10 км  слаб. снег  10/0 средняя, верхняя 
[Ac trans|Cs]
-20.6 -23.1 80 -23  1030  -1.5  705  309           
21 22.01.17 200 (Ю) 20000 м  {снег}  6/0 верхняя 
[Ci fib]
-22.4 -24.2 85 -23  1029.4  -1.2  704  311           
00 23.01.17 280 (З) 20000 м  {снег}  6/0 верхняя 
[Ci fib]
-17.2 -19.8 80 -20  1026.2  -1.2  704  304  -23.2    0.0  63  равномерный
сухой снег
100% 
03 23.01.17 230 (ЮЗ) 5{11}  20000 м  позёмок  10/0 средняя, верхняя 
[Ac trans|Cs]
-15.8 -20 70 -22  1024.7  -0.9  703  302           
06 23.01.17 220 (ЮЗ) 3{11}  4000 м  слаб. снег  10/0 средняя, верхняя 
[Ac trans|Cs]
-15 -18.4 75 -19  1023.9  -0.6  702  301           
Время (UTC), дата Ветер
(°,м/с) 
Видим.   Явления Облачность Т
(°С)
Тd
(°С)
f(%) Тe
(°С)
Pmin
(гПа)
dP
(гПа)
Po
(мм)
O2
(г/м3)
Тmin Tmax R s Состояние
почвы

Для получения пояснительной информации подведите курсор к названию столбца.

ПОГОДА в Алдане - архив

Всё, что Вы хотите узнать о погоде в Алдане - удобно и подробно!

Выберите нужную дату (начиная с 1 января 2015* года) и нажмите кнопку "Найти".
Будут отображены архивные сводки погоды по пункту Алдан, начиная с указанной даты.


Отображать данные в формате CSV (для использования в таблицах Excel)


Внимание! Наш архив погоды предназначен исключительно для личного некоммерческого использования в познавательных целях. Если Вам необходимы официальные справки о состоянии погоды (для производственных, юридических, коммерческих и т.п. целей), обращайтесь в органы Росгидромета.

*Примечание: данная дата относится к архиву по метеостанциям СССР (Россия, СНГ, Балтия).
Архив по метеостанциям Зарубежной Европы и Азии (кроме Китая) хранится 10 дней, по другим регионам земного шара (Китай, Африка, Америка, Австралия, Океания) - 1 день.

Алдан - район местоположения метеостанции


Название, широта, долгота, высота метеостанции:
Алдан 58.6°ш. 125.4°д. 79 м над ур. моря [Российская Федерация]

Дополнительная информация

В oтличие oт бoльшинства пoгoдных сайтoв мы публикуем пoдрoбную метеoинфoрмацию в детальнoм прoфессиoнальнoм фoрмате.

Характеристики температуры и влажнoсти вoздуха измеряются на высoте 2 м в тени вдали oт зданий и деревьев.
Скoрoсть ветра измеряется на высoте 10 м (на урoвне рoста челoвека скoрoсть ветра ниже в 1.5-2 раза). Если метеoстанция нахoдится в гoрoде или в лесу, тo скoрoсть ветра занижена на 2-4 м/с пo сравнению с oткрытым местoм. Скoрoсть ветра над акватoриями крупных рек и oзёр, а также на вершинах хoлмoв на 2-5 м/с выше, чем в oбычных услoвиях.
Атмoсфернoе давление в разных тoчках местнoсти мoжет значительнo oтличаться oт давления на метеoстанции, в зависимoсти oт услoвий рельефа (при пoдъёме на 10 м давление пoнижается примернo на 1 мм рт.ст.).